Regional Weather Roundup
Issued by NWS Jackson, KY

Home | Current Version | Previous Version | Text Only | Print | Product List | Glossary Off
Versions: 1 2 3 4 5 6 7 8 9 10 11 12 13 14 15 16 17 18 19 20 21 22 23 24 25 26 27 28 29 30 31 32 33 34 35 36 37 38 39 40 41 42 43 44 45 46 47 48 49 50

000
ASUS43 KJKL 212010
RWRJKL

EAST KENTUCKY HOURLY WEATHER ROUNDUP
NATIONAL WEATHER SERVICE JACKSON KY
300 PM EST WED FEB 21 2018

NOTE: "FAIR" INDICATES FEW OR NO CLOUDS BELOW 12,000 FEET WITH
NO SIGNIFICANT WEATHER AND/OR OBSTRUCTIONS TO VISIBILITY.

* THESE REPORTS ARE NOT UNDER NWS QUALITY CONTROL AND MAY NOT
  REPORT WEATHER SUCH AS PRECIPITATION AND FOG.

KYZ079-080-083-085-087-088-110-112-115-119-120-212100
...EASTERN KENTUCKY...

CITY           SKY/WX    TMP DP  RH WIND       PRES   REMARKS
JACKSON        PTSUNNY   61  58  90 VRB3      30.34S
LONDON         RAIN      61  58  90 N8        30.33R FOG
SOMERSET*      CLOUDY    63  54  72 MISG      30.33S
WILLIAMSBURG*  MOCLDY    64  63  94 N8        30.31R
MIDDLESBORO*   CLOUDY    75  61  61 SW6       30.32S
HARLAN APT*    CLOUDY    72  57  60 SW5       30.32F
PIKE CO APT*   LGT RAIN  65  62  91 NW9       30.33R
BIG SANDY APT* DRIZZLE   65  60  85 N5        30.34R
MOREHEAD APT*  CLOUDY    63  52  67 N7        30.36F
ASHLAND*       PTSUNNY   64  53  67 NW7       30.34R
$$

KYZ035-036-041-042-044-050-067-078-099-212100
...CENTRAL KENTUCKY...

CITY           SKY/WX    TMP DP  RH WIND       PRES   REMARKS
MT STERLING*   CLOUDY    61  54  77 NE7       30.35F
FLEMING/MASON* CLOUDY    59  55  87 NE10      30.36F
DANVILLE*      RAIN      59  54  82 E8        30.35F
LEXINGTON      CLOUDY    61  55  81 N10       30.34F
FRANKFORT      CLOUDY    55  51  86 N10       30.34F
LOUISVILLE     LGT RAIN  49  45  86 N12G22    30.38S
LEBANON*       CLOUDY    59  55  88 N7        30.35R
GLASGOW*       LGT RAIN N/A N/A N/A N7        30.34F
BOWLING GREEN  CLOUDY    50  49  96 N6        30.35F
$$

KYZ091>093-OHZ055-061-077-WVZ005-015-034-035-042-212100
...SOUTHERN OHIO/WEST VIRGINIA...

CITY           SKY/WX    TMP DP  RH WIND       PRES   REMARKS
COVINGTON      CLOUDY    47  46  97 N10       30.39S
COLUMBUS       LGT RAIN  48  45  89 N10       30.39F
DAYTON         CLOUDY    42  42 100 N12       30.44R
WILMINGTON     CLOUDY    46  45  96 N14       30.40R
HUNTINGTON     PTSUNNY   66  53  63 N10       30.33R
CHARLESTON     PTSUNNY   69  60  73 W8G20     30.30R
BECKLEY        LGT RAIN  63  58  83 SW7       30.36F
BLUEFIELD      CLOUDY    70  51  51 SW12      30.38F
LOGAN CO APT*  MOCLDY    75  59  57 VRB6G20   30.31R
$$

VAZ002-007-008-TNZ017-027-036-066-071-212100
...SOUTHWEST VIRGINIA/EAST TENNESSEE...

CITY           SKY/WX    TMP DP  RH WIND       PRES   REMARKS
WISE*          LGT RAIN  68  61  77 W10       30.38S
JONESVILLE*      N/A     73  64  73 CALM      30.34S
ABINGDON*      PTSUNNY   78  57  48 W10       30.34F
BRISTOL          N/A     81  58  45 SW12G20   30.31F
MORRISTOWN*    PTCLDY    81  61  50 NW12      30.30S
SEVIERVILLE*   PTCLDY    84  57  39 W12G18    30.29S
KNOXVILLE        N/A     78  65  63 SW20G25   30.28F
LAFOLLETTE*    MOCLDY    72  63  73 SW8G14    30.34S
OAK RIDGE      CLOUDY    79  64  60 SW7       30.30F
CROSSVILLE       N/A     74  59  59 S15G24    30.31F
NASHVILLE      LGT RAIN  56  54  93 N8        30.32F
$$

...KEY TO REMARKS...
VSB - VISIBILITY IN MILES
WCI - WIND CHILL INDEX
HX  - HEAT INDEX

$$



USA.gov is the U.S. government's official web portal to all federal, state and local government web resources and services.